Location: Fort Wayne
(41.1310°N, 85.1290°W)
Time: 03:25:36
(UTC-04:00)

Meteor 2-9 Rocket - Visible Passes

Search period start: 29 June 2016 00:00
Search period end: 09 July 2016 00:00
Orbit: 792 x 895 km, 81.3° (Epoch: 28 June)

Date Brightness Start Highest point End Pass type
(mag) Time Alt. Az. Time Alt. Az. Time Alt. Az.
01 Jul 6.3 05:24:19 10° SE 05:29:05 28° E 05:33:57 10° NNE visible
02 Jul 6.4 05:10:31 10° SE 05:15:03 25° E 05:19:42 10° NE visible
03 Jul 6.6 04:56:45 10° SE 05:01:02 22° E 05:05:23 10° NE visible
04 Jul 6.7 04:43:02 10° SE 04:47:01 20° E 04:51:04 10° NE visible
05 Jul 6.7 04:29:22 10° SE 04:33:00 17° E 04:36:41 10° NE visible
06 Jul 6.8 04:15:50 10° ESE 04:19:00 15° E 04:22:13 10° NE visible
07 Jul 6.8 04:02:23 10° ESE 04:05:00 13° E 04:07:39 10° NE visible
07 Jul 4.3 05:41:10 10° SSW 05:46:56 80° W 05:52:49 10° N visible
08 Jul 6.9 03:49:11 10° E 03:51:01 12° E 03:52:52 10° ENE visible
08 Jul 4.4 05:27:04 10° S 05:32:50 90° WNW 05:38:43 10° N visible
